Regional Weather Roundup
Issued by NWS

Home | Current Version | Previous Version | Text Only | Print | Product List | Glossary Off
Versions: 1 2 3 4 5 6 7 8 9 10 11 12 13 14 15 16 17 18 19 20 21 22 23 24 25 26 27 28 29 30 31 32 33 34 35 36 37 38 39 40 41 42 43 44 45 46 47 48 49 50

000
ASUS45 KPSR 011700
RWRAZ

ARIZONA HOURLY REGIONAL WEATHER ROUNDUP
NATIONAL WEATHER SERVICE PHOENIX AZ
1000 AM MST TUE SEP 01 2015

NOTE: FAIR INDICATES FEW OR NO CLOUDS BELOW 12,000 FEET WITH NO
SIGNIFICANT WEATHER AND/OR OBSTRUCTIONS TO VISIBILITY.

AZZ001>003-036-011800-
NORTHWEST ARIZONA

CITY           SKY/WX    TMP DP  RH WIND       PRES   REMARKS
KINGMAN        SUNNY     85  46  25 VRB6      30.06R
$$

AZZ004>008-015-016-018-011800-
NORTH CENTRAL ARIZONA

CITY           SKY/WX    TMP DP  RH WIND       PRES   REMARKS
GRAND CANYON   SUNNY     70  49  47 S7        30.29S
WILLIAMS       SUNNY     73  45  35 CALM      30.33S
PRESCOTT       SUNNY     76  54  46 CALM      30.19R
FLAGSTAFF      NOT AVBL
PAYSON         MOSUNNY   73  55  53 VRB3      30.22R
PAGE           SUNNY     79  54  41 N5        30.13R
$$

AZZ009>014-017-011800-
NORTHEAST ARIZONA

CITY           SKY/WX    TMP DP  RH WIND       PRES   REMARKS
WINSLOW        NOT AVBL
SAINT JOHNS    MOSUNNY   73  53  49 E7        30.25S
WINDOW ROCK    PTSUNNY   71  50  47 CALM      30.32S
$$

AZZ023-011800-
GREATER PHOENIX AREA

CITY           SKY/WX    TMP DP  RH WIND       PRES   REMARKS
PHOENIX        PTSUNNY   87  64  46 E10       29.93R
LUKE AFB       MOSUNNY   89  64  43 VRB5      29.92S
DEER VALLEY    MOSUNNY   87  59  38 S7        29.95R
SCOTTSDALE     MOSUNNY   85  63  47 S8        29.97R
MESA-GATEWAY   MOSUNNY   84  64  51 SE7       29.98R
CHANDLER       PTSUNNY   86  64  48 E10       29.95R
$$

AZZ027-028-011800-
SOUTHWEST MARICOPA COUNTY AND PINAL COUNTY

CITY           SKY/WX    TMP DP  RH WIND       PRES   REMARKS
CASA GRANDE    PTSUNNY   84  64  51 E7        29.95S
GILA BEND      PTSUNNY   92  62  37 VRB7      29.89R
$$

AZZ503-504-507>509-011800-
SOUTHEAST ARIZONA

CITY           SKY/WX    TMP DP  RH WIND       PRES   REMARKS
TUCSON         MOSUNNY   84  63  49 E6        30.04S
DAVIS-MONTHAN  PTSUNNY   84  62  47 VRB6      30.03R
RYAN FIELD     SUNNY     86  66  51 CALM      30.03R
NOGALES        SUNNY     81  58  45 S6        30.12S
SIERRA VISTA   MOSUNNY   80  55  41 SE5       30.18R
SAFFORD        CLOUDY    73  65  75 CALM      30.09S
$$

AZZ020-021-025-026-031-011800-
SOUTHWEST ARIZONA

CITY           SKY/WX    TMP DP  RH WIND       PRES   REMARKS
YUMA           NOT AVBL
$$

CAZ031-033-041-043-047-048-061-011800-
SOUTHERN CALIFORNIA

CITY           SKY/WX    TMP DP  RH WIND       PRES   REMARKS
DOWNTOWN L.A.  CLOUDY    74  59  59 VRB3      29.93R
L.A. AIRPORT   PTSUNNY   73  59  61 SE7       29.94R
SAN DIEGO      PTSUNNY   72  58  61 CALM      29.95S
BURBANK        MOSUNNY   73  58  59 VRB5      29.94R
ONTARIO        PTSUNNY   72  59  63 CALM      29.95R
RIVERSIDE      PTSUNNY   71  58  63 CALM      29.95S
PALM SPRINGS   MOSUNNY   91  47  21 N3        29.89R
EL CENTRO NAS  PTSUNNY   92  70  48 SE3       29.83S
IMPERIAL       MOSUNNY   93  72  50 VRB5      29.81S HX 101
BLYTHE         SUNNY     93  68  43 SE10G17   29.86R
$$

NVZ020-UTZ003-011800-
SOUTHERN NEVADA-UTAH

CITY           SKY/WX    TMP DP  RH WIND       PRES   REMARKS
LAS VEGAS      NOT AVBL
SALT LAKE CITY MOSUNNY   83  47  28 S15G22    30.00R
$$

NMZ009-TXZ055-011800-
NEW MEXICO-WEST TEXAS

CITY           SKY/WX    TMP DP  RH WIND       PRES   REMARKS
ALBUQUERQUE    MOSUNNY   80  47  31 W3        30.22R
EL PASO        MOSUNNY   90  47  22 CALM      30.08S
$$


........................KEY........................
SKY/WX - SKY CONDITION/WEATHER
TMP    - TEMPERATURE IN FAHRENHEIT
DP     - DEW POINT IN FAHRENHEIT
RH     - RELATIVE HUMIDITY IN PERCENT
WIND   - DIRECTION AND SPEED IN MILES PER HOUR (MPH)
VRB    - VARIABLE WIND DIRECTION
PRES   - MEAN SEA LEVEL PRESSURE IN INCHES OF MERCURY
         F - FALLING PRESSURE   R - RISING PRESSURE
         S - STEADY PRESSURE
VSB    - VISIBILITY IN MILES
HX     - HEAT INDEX IN FAHRENHEIT
WCI    - WIND CHILL INDEX IN FAHRENHEIT
TC     - TEMPERATURE IN CELSIUS WHICH IS ALSO KNOWN AS
         TEMPERATURE IN CENTIGRADE
AFB    - AIR FORCE BASE
         LUKE AFB IS LUKE AIR FORCE BASE
         DAVIS-MONTHAN IS DAVIS-MONTHAN AIR FORCE BASE
NAS    - NAVAL AIR STATION
         EL CENTRO NAS IS EL CENTRO NAVAL AIR STATION
N/A    - NOT AVAILABLE



USA.gov is the U.S. government's official web portal to all federal, state and local government web resources and services.